[[{"header":{"parameterUnit":"m.s-1","parameterCategory":1,"la1":30.2991,"la2":30.254,"lo1":-89.0895,"lo2":-89.0444,"dy":0.0017,"dx":0.0017,"nx":28,"ny":28,"refTime":"2025-05-16T21:00:00:Z","depth":0,"parameterNumber":2,"parameterNumberName":"U-component_of_WINDS"},"data":[0,0,0,0,0,0,0,0,0,0,0,0,0,0,0,0,0,0,0,0,0,0,0,0,0,0,0,0,0,0,0,0,0,0,0,0,0,0,0,0,0,0,0,0,0,0,0,0,0,0,0,0,0,0,0,0,0,0,1.8444,1.8443,0,1.8386,1.8385,1.8384,1.8285,1.8283,1.8281,1.828,1.8222,1.8222,1.8222,0,0,0,0,0,0,0,0,0,0,0,0,0,1.8469,1.8469,1.8444,1.8443,1.8442,1.8386,1.8385,1.8384,1.8286,1.8283,1.8281,1.8279,1.8221,1.8222,1.8222,0,0,0,0,0,0,0,0,0,0,0,0,0,1.844,1.847,1.8444,1.8386,1.8381,1.8386,1.8385,1.8384,1.8286,1.8283,1.828,1.8278,1.8221,1.8222,1.8222,1.8279,0,0,1.8223,1.8223,0,0,0,0,0,0,0,0,1.8442,1.8439,1.8395,1.839,1.8384,1.834,1.8373,1.8349,1.8287,1.8322,1.828,1.8276,1.8263,1.826,1.8255,1.8277,1.8274,1.8223,1.8223,1.8223,1.8223,0,0,0,0,0,0,0,1.8444,1.8441,1.8421,1.8395,1.8388,1.8363,1.8356,1.8368,1.8309,1.8319,1.8311,1.8306,1.826,1.8255,1.8253,1.8273,1.8223,1.8223,1.8223,1.8223,1.8337,1.834,0,0,0,0,0,0,1.8454,1.8443,1.8423,1.8419,1.8406,1.8365,1.8357,1.8357,1.8309,1.8299,1.8308,1.8301,1.8256,1.8253,1.8251,1.8313,1.8223,1.8223,1.8224,1.8335,1.8338,1.8341,0,0,0,0,0,0,1.8455,1.8453,1.8425,1.8429,1.8424,1.8368,1.8368,1.8357,1.8353,1.8301,1.829,1.8315,1.8254,1.825,1.8273,1.831,1.8223,1.8224,1.8331,1.8336,1.834,1.8441,0,0,0,0,0,0,1.8456,1.8454,1.8476,1.843,1.8424,1.8448,1.8371,1.8358,1.8353,1.8344,1.8304,1.8294,1.8251,1.8273,1.8273,1.8309,1.8224,1.8328,1.8333,1.8338,1.8434,1.8448,1.846,0,0,0,0,0,1.8457,1.8507,1.8477,1.8475,1.8449,1.8451,1.8447,1.8396,1.8357,1.8377,1.8344,1.8296,1.8306,1.8276,1.8275,1.8312,1.8325,1.8332,1.8338,1.8428,1.8445,1.846,0,0,0,0,0,0,1.8559,1.85,1.8466,1.8503,1.8482,1.8434,1.8459,1.8416,1.8407,1.8399,1.8336,1.8328,1.8358,1.8337,1.8304,1.8364,1.8308,1.8315,1.8377,1.8393,1.8406,1.841,1.8224,0,0,0,0,0,1.8585,1.8591,1.8539,1.8577,1.8568,1.8516,1.8514,1.8476,1.8453,1.8444,1.8412,1.8392,1.839,1.839,1.8386,1.843,1.842,1.8455,1.8469,1.848,1.8486,1.8507,1.8521,1.8362,1.8362,1.8362,0,0,1.864,1.8609,1.8616,1.8596,1.8576,1.8583,1.8509,1.852,1.8525,1.8446,1.8464,1.8441,1.8413,1.8447,1.846,1.843,1.8528,1.8488,1.8497,1.8497,1.8515,1.853,1.8543,1.8367,1.8366,1.8365,0,0,1.8744,1.8721,1.8748,1.873,1.87,1.8664,1.8671,1.8629,1.861,1.8627,1.8568,1.8573,1.8572,1.8554,1.8545,1.8641,1.8596,1.8641,1.871,1.8731,1.8743,1.8754,1.8788,1.88,1.8648,1.8648,1.8648,0,1.8816,1.8824,1.8768,1.8783,1.8775,1.8704,1.8731,1.8715,1.8686,1.8682,1.865,1.8646,1.8622,1.865,1.8673,1.8669,1.8674,1.8646,1.8746,1.8756,1.8766,1.8797,1.8809,1.8654,1.8653,1.8653,1.8652,0,1.8914,1.8921,1.8946,1.8919,1.8914,1.8936,1.8883,1.8885,1.8848,1.8816,1.8834,1.8803,1.8791,1.8795,1.8759,1.8817,1.8799,1.8758,1.8699,1.8787,1.8815,1.8827,1.8662,1.866,1.8658,1.8657,0,0,1.908,1.902,1.9031,1.9017,1.8978,1.8982,1.9,1.8987,1.899,1.8972,1.8984,1.8985,1.8945,1.8935,1.8896,1.8915,1.8991,1.887,1.8868,1.8893,1.9052,1.9084,1.9098,1.8961,1.8963,1.8965,1.9054,0,1.9174,1.92,1.915,1.9188,1.9193,1.9125,1.914,1.9118,1.9089,1.9088,1.9055,1.9056,1.9005,1.8998,1.9013,1.8979,1.9022,1.8972,1.8972,1.8973,1.898,1.9113,1.9146,1.9232,1.9065,1.9067,1.9068,0,1.9288,1.9275,1.9314,1.9272,1.9272,1.9287,1.927,1.9271,1.9244,1.9221,1.921,1.9164,1.9178,1.9122,1.914,1.9106,1.9103,1.9087,1.9089,1.9086,1.9025,1.9114,1.9258,1.9271,1.9085,1.9084,1.9082,0,1.9404,1.9396,1.9418,1.9408,1.936,1.9372,1.9352,1.9323,1.9318,1.9304,1.93,1.9288,1.9282,1.9273,1.9225,1.9189,1.9248,1.9189,1.9229,1.923,1.9244,1.9244,1.939,1.9244,1.9244,1.9243,1.9243,0,1.9515,1.9541,1.9469,1.9482,1.9509,1.9451,1.948,1.9453,1.9427,1.9434,1.9375,1.9382,1.9318,1.9319,1.9282,1.9301,1.9299,1.928,1.927,1.9285,1.9287,1.9282,1.9274,1.9247,1.9246,1.9245,1.9245,0,1.9648,1.9602,1.962,1.9573,1.9562,1.9584,1.9543,1.9553,1.9519,1.9529,1.9527,1.9475,1.9472,1.9423,1.9411,1.9385,1.9419,1.9398,1.9429,1.9421,1.9464,1.946,1.9611,1.9627,1.9472,1.9474,1.9475,0,1.9722,1.974,1.9694,1.9694,1.9678,1.9679,1.9673,1.9617,1.9614,1.9584,1.9598,1.959,1.9581,1.958,1.954,1.953,1.9507,1.9561,1.9505,1.952,1.9507,1.9506,1.9507,1.9572,1.9574,1.9576,1.9577,0,1.9856,1.9832,1.9826,1.9813,1.9808,1.9794,1.9777,1.9781,1.9719,1.9718,1.9714,1.9707,1.9694,1.9687,1.9669,1.9648,1.9603,1.9595,1.9604,1.9619,1.9635,1.9626,1.946,1.9592,1.959,1.9589,1.9589,1.9588,1.9961,1.9974,1.9943,1.9939,1.992,1.9905,1.9912,1.9879,1.9875,1.9859,1.9826,1.9827,1.9799,1.977,1.9754,1.9753,1.9726,1.9739,1.9742,1.9745,1.9753,1.9636,1.975,1.9749,1.9749,1.9749,1.9748,0,2.0091,2.0068,2.0065,2.0042,2.0039,1.9996,1.9975,1.9974,1.9976,1.9954,1.9946,1.9941,1.9934,1.9893,1.9881,1.9889,1.9867,1.9887,1.9886,1.9882,1.9779,1.9773,1.9905,1.9905,1.9905,1.9905,1.9905,1.9905,2.0159,2.0178,2.015,2.0158,2.0135,2.0135,2.0127,2.0113,2.0094,2.0091,2.0085,2.0059,2.0029,2.0014,2.0005,1.9993,1.9991,2.0018,1.9999,1.9904,1.9889,1.9875,1.9868,2.0018,2.0018,2.0101,2.0102,2.0103]},{"header":{"parameterUnit":"m.s-1","parameterCategory":1,"la1":30.2991,"la2":30.254,"lo1":-89.0895,"lo2":-89.0444,"dy":0.0017,"dx":0.0017,"nx":28,"ny":28,"refTime":"2025-05-16T21:00:00:Z","depth":0,"parameterNumber":3,"parameterNumberName":"V-component_of_WINDS"},"data":[0,0,0,0,0,0,0,0,0,0,0,0,0,0,0,0,0,0,0,0,0,0,0,0,0,0,0,0,0,0,0,0,0,0,0,0,0,0,0,0,0,0,0,0,0,0,0,0,0,0,0,0,0,0,0,0,0,0,5.7608,5.7609,0,5.7633,5.7633,5.7633,5.7558,5.7556,5.7554,5.7551,5.7573,5.7576,5.7579,0,0,0,0,0,0,0,0,0,0,0,0,0,5.7493,5.7495,5.7608,5.7609,5.7609,5.7633,5.7633,5.7633,5.7559,5.7556,5.7553,5.755,5.7572,5.7576,5.7579,0,0,0,0,0,0,0,0,0,0,0,0,0,5.7532,5.7496,5.7608,5.7575,5.7572,5.7632,5.7633,5.7633,5.7559,5.7556,5.7552,5.7549,5.7571,5.7575,5.7579,5.7673,0,0,5.7592,5.7593,0,0,0,0,0,0,0,0,5.753,5.7537,5.7579,5.7577,5.7574,5.7589,5.76,5.7646,5.756,5.7564,5.7551,5.7547,5.7581,5.7584,5.7596,5.7674,5.7674,5.7592,5.7594,5.7596,5.7597,0,0,0,0,0,0,0,5.7528,5.7535,5.7618,5.758,5.7577,5.7557,5.7559,5.7608,5.7591,5.7563,5.7558,5.7562,5.7579,5.7592,5.7596,5.7675,5.7592,5.7595,5.7598,5.76,5.7828,5.7832,0,0,0,0,0,0,5.753,5.7533,5.7617,5.7618,5.7543,5.7562,5.7564,5.7588,5.759,5.7588,5.7565,5.7558,5.7587,5.7591,5.7596,5.7705,5.7596,5.76,5.7602,5.7825,5.7829,5.7833,0,0,0,0,0,0,5.7528,5.7538,5.7616,5.7575,5.7583,5.7567,5.7595,5.759,5.7603,5.7592,5.7588,5.7582,5.7585,5.7591,5.7654,5.7705,5.7602,5.7605,5.782,5.7826,5.7831,5.7924,0,0,0,0,0,0,5.7525,5.7538,5.7574,5.7576,5.7586,5.7675,5.7598,5.7593,5.7611,5.7602,5.7607,5.7604,5.7582,5.7648,5.7658,5.7708,5.7609,5.7816,5.7823,5.7829,5.7916,5.7932,5.7945,0,0,0,0,0,5.7521,5.7599,5.7577,5.7587,5.7631,5.7678,5.7683,5.7657,5.7615,5.7651,5.7643,5.7604,5.7698,5.7656,5.7666,5.7718,5.7812,5.7821,5.7829,5.7909,5.7929,5.7945,0,0,0,0,0,0,5.7603,5.7599,5.7574,5.7655,5.7668,5.7665,5.771,5.7679,5.7703,5.7694,5.7659,5.7661,5.773,5.773,5.7683,5.7808,5.7747,5.7758,5.7805,5.7823,5.7838,5.7836,5.7612,0,0,0,0,0,5.7631,5.767,5.7664,5.7736,5.7744,5.7726,5.7745,5.7724,5.7735,5.774,5.7737,5.7748,5.778,5.7801,5.783,5.7915,5.7914,5.7956,5.7971,5.7983,5.7992,5.8036,5.8054,5.786,5.786,5.786,0,0,5.7688,5.7691,5.7718,5.7753,5.776,5.78,5.7731,5.7777,5.7806,5.7746,5.7806,5.7804,5.7814,5.7889,5.7922,5.7891,5.8046,5.7993,5.8003,5.8006,5.8046,5.8065,5.8081,5.7865,5.7864,5.7864,0,0,5.7813,5.782,5.788,5.7889,5.7901,5.7888,5.7903,5.7905,5.7901,5.7961,5.7917,5.795,5.8006,5.8015,5.8026,5.8153,5.8118,5.8163,5.8239,5.8282,5.8298,5.8311,5.8356,5.8372,5.8173,5.8173,5.8173,0,5.7883,5.7944,5.7915,5.7964,5.798,5.7928,5.7988,5.7998,5.8018,5.8029,5.7995,5.8063,5.8066,5.8142,5.8173,5.8184,5.8199,5.8163,5.8298,5.8311,5.8323,5.8365,5.8382,5.8179,5.8178,5.8177,5.8177,0,5.8028,5.8071,5.8118,5.8139,5.816,5.8215,5.8193,5.8217,5.8194,5.8184,5.8245,5.8247,5.8274,5.829,5.8268,5.8362,5.8343,5.8304,5.8243,5.8348,5.8387,5.8403,5.8186,5.8185,5.8183,5.8182,0,0,5.8208,5.8212,5.8229,5.8238,5.8246,5.8278,5.8329,5.8356,5.8378,5.8393,5.8434,5.8482,5.8445,5.8459,5.8436,5.8474,5.8574,5.843,5.843,5.8457,5.8677,5.8706,5.8725,5.855,5.8553,5.8555,5.8676,0,5.8331,5.8419,5.8394,5.8482,5.852,5.8471,5.8515,5.8524,5.8516,5.8546,5.8536,5.857,5.852,5.8528,5.8563,5.8554,5.8617,5.8545,5.8587,5.8589,5.8586,5.8746,5.8777,5.8891,5.8691,5.8693,5.8695,0,5.8487,5.8508,5.8601,5.8601,5.8616,5.8657,5.8679,5.8709,5.8717,5.8708,5.8723,5.8692,5.8741,5.8679,5.8745,5.8697,5.8712,5.871,5.8714,5.8717,5.8649,5.8753,5.8926,5.8943,5.8719,5.8717,5.8715,0,5.8607,5.8659,5.8721,5.873,5.8732,5.8762,5.8764,5.8769,5.8787,5.8806,5.8817,5.8841,5.8855,5.8874,5.885,5.8808,5.8919,5.8856,5.8912,5.8913,5.8938,5.8937,5.9117,5.8949,5.8948,5.8948,5.8948,0,5.8748,5.8806,5.8775,5.8813,5.8876,5.8846,5.8908,5.8905,5.891,5.8945,5.8903,5.8937,5.8903,5.8934,5.8915,5.8972,5.8978,5.8972,5.8966,5.8976,5.8977,5.8986,5.8977,5.8952,5.8951,5.8951,5.895,0,5.8894,5.8876,5.8939,5.8936,5.8937,5.8983,5.898,5.9014,5.9002,5.9047,5.9056,5.9038,5.9071,5.9049,5.9083,5.907,5.9145,5.9128,5.9142,5.9138,5.9195,5.919,5.9387,5.9411,5.9228,5.9229,5.9231,0,5.8985,5.9028,5.903,5.905,5.9056,5.909,5.9108,5.9078,5.9098,5.9111,5.9143,5.9173,5.9195,5.9251,5.924,5.9265,5.9248,5.9315,5.9252,5.926,5.9249,5.9247,5.9251,5.9329,5.9331,5.9332,5.9334,0,5.9147,5.9136,5.9164,5.9188,5.9211,5.9228,5.9242,5.9262,5.9232,5.9256,5.929,5.9308,5.9342,5.9371,5.9392,5.9393,5.9359,5.9354,5.9368,5.9378,5.9385,5.9382,5.9177,5.935,5.9348,5.9347,5.9346,5.9345,5.9268,5.9304,5.9311,5.9342,5.935,5.9364,5.9395,5.9387,5.9415,5.9441,5.9422,5.9462,5.9467,5.9492,5.9497,5.9527,5.9499,5.952,5.9525,5.9531,5.9539,5.938,5.953,5.953,5.9529,5.9529,5.9529,0,5.9428,5.943,5.9459,5.948,5.9505,5.9471,5.9484,5.9507,5.9543,5.9551,5.9574,5.9612,5.964,5.9631,5.9656,5.9682,5.9667,5.969,5.9688,5.9688,5.9562,5.9547,5.9702,5.9702,5.9702,5.9701,5.9701,5.9701,5.9515,5.9574,5.9563,5.9624,5.9624,5.9664,5.9674,5.9686,5.9692,5.9737,5.9761,5.9755,5.9756,5.978,5.9804,5.9801,5.9812,5.984,5.9831,5.9714,5.9697,5.9681,5.9666,5.9843,5.9843,5.9954,5.9955,5.9956]}]]